Location: Bailleul
(50.3375°N, 2.8513°E)
Time: 21:01:32
(UTC+00:00)

deb Agena D - Visible Passes

Search period start: 24 January 2022 00:00
Search period end: 03 February 2022 00:00
Orbit: 686 x 826 km, 100.0° (Epoch: 24 January)

Date Brightness Start Highest point End Pass type
(mag) Time Alt. Az. Time Alt. Az. Time Alt. Az.
25 Jan ? 04:12:15 10° N 04:12:17 10° N 04:12:17 10° N visible
26 Jan ? 05:12:19 10° N 05:12:25 10° NNW 05:12:25 10° NNW visible
27 Jan ? 04:32:09 10° N 04:32:33 12° N 04:32:33 12° N visible
28 Jan ? 03:52:24 10° NNE 03:52:41 12° NNE 03:52:41 12° NNE visible
28 Jan ? 05:32:38 10° NNW 05:32:42 10° NNW 05:32:42 10° NNW visible
29 Jan ? 04:52:07 10° N 04:52:50 14° N 04:52:50 14° N visible
30 Jan ? 04:12:12 10° N 04:12:59 15° N 04:12:59 15° N visible
31 Jan ? 03:32:39 10° NNE 03:33:08 13° NNE 03:33:08 13° NNE visible
31 Jan ? 05:12:11 10° N 05:13:09 14° NNW 05:13:09 14° NNW visible
01 Feb ? 04:32:04 10° N 04:33:18 17° N 04:33:18 17° N visible
02 Feb ? 03:52:21 10° NNE 03:53:27 17° NNE 03:53:27 17° NNE visible
02 Feb ? 05:32:24 10° NNW 05:33:27 13° NNW 05:33:27 13° NNW visible
